DateTimeUTC,F1_A11,F1_S11,BsB_S11,BsG_S11,BsR_S11,BbsB_S11,BbsG_S11,BbsR_S11,BaB_A11,BaG_A11,BaR_A11,Tu_S11,T_S11,Uu_S11,U_S11,P_S11,T1_A11
2021-03-10T12:00:00Z,00000200,21000000,,,,,,,-000.02,-000.09,0000.52,17.0,24.6,,00.0,0641.2,30.9
2021-03-10T12:01:00Z,00000200,21000000,,,,,,,-000.09,0000.41,-000.25,17.0,24.6,,00.0,0641.2,31.0
2021-03-10T12:02:00Z,00000200,21000000,,,,,,,0000.15,-000.05,0000.05,17.1,24.6,,00.0,0641.2,31.0
2021-03-10T12:03:00Z,00000200,61000000,,,,,,,0000.21,0000.45,0000.40,17.1,24.6,,00.0,0641.2,31.0
2021-03-10T12:04:00Z,00000200,41000000,0001.02,0000.63,0000.03,-000.38,0000.18,0000.21,0000.18,0000.05,-000.35,17.6,24.6,,00.0,0642.2,31.0
2021-03-10T12:05:00Z,00000200,01000000,0001.19,0000.62,-000.03,0000.07,0000.32,0000.19,0000.22,-000.20,0000.57,17.7,24.5,,00.0,0642.3,31.0
2021-03-10T12:06:00Z,00000200,01000000,0001.41,0000.75,0000.20,0000.14,0000.23,0000.21,0000.47,0000.65,0000.48,17.7,24.6,,00.0,0642.2,31.0
2021-03-10T12:07:00Z,00000200,01000000,0001.00,0000.65,0000.51,0000.55,0000.12,0000.09,0000.35,0000.53,-000.19,17.7,24.6,,00.0,0642.2,31.0
2021-03-10T12:08:00Z,00000200,01000000,0001.19,0000.40,0000.32,0000.52,0000.11,0000.25,0000.26,0000.09,0000.47,17.7,24.6,,00.0,0642.2,30.9
2021-03-10T12:09:00Z,00000200,01000000,0001.06,0000.75,0000.28,-000.33,0000.28,0000.07,0000.07,0000.11,-000.20,17.6,24.5,,00.0,0642.2,31.0
2021-03-10T12:10:00Z,00000200,01000000,0001.54,0000.68,0000.26,0000.22,0000.30,0000.08,0000.47,0000.09,0000.49,17.6,24.5,,00.0,0642.2,31.0
2021-03-10T12:11:00Z,00000200,01000000,0000.50,0000.79,0000.37,0000.09,0000.35,0000.08,0000.12,0000.07,-000.29,17.5,24.5,,00.0,0642.3,30.9
2021-03-10T12:12:00Z,00000200,01000000,0001.30,0000.70,0000.52,0000.14,0000.33,0000.11,-000.07,0000.44,0000.46,17.5,24.5,,00.0,0642.3,30.9
2021-03-10T12:13:00Z,00000200,01000000,0000.70,0000.68,0000.11,0000.14,0000.24,0000.49,0000.68,-000.10,0000.04,17.5,24.5,,00.0,0642.3,30.9
2021-03-10T12:14:00Z,00000200,01000000,0001.44,0000.61,0000.27,0000.42,0000.35,0000.14,0000.75,0001.02,0000.55,17.4,24.4,,00.0,0642.3,30.9
2021-03-10T12:15:00Z,00000200,01000000,0000.95,0000.82,0000.14,-000.30,0000.29,0000.20,0000.21,0000.53,0000.27,17.4,24.4,,00.0,0642.3,30.9
2021-03-10T12:16:00Z,00000200,01000000,0000.67,0000.57,0000.33,-000.05,0000.26,0000.31,0000.66,0000.57,0000.64,17.4,24.4,,00.0,0642.2,30.9
2021-03-10T12:17:00Z,00000200,01000000,0001.65,0000.69,0000.35,0000.35,0000.38,0000.37,0000.44,0000.22,0000.12,17.3,24.4,,00.0,0642.2,30.9
2021-03-10T12:18:00Z,00000200,01000000,0001.67,0000.75,0000.64,0000.36,0000.07,-000.14,0000.54,0000.49,0000.23,17.3,24.4,,00.0,0642.2,30.9
2021-03-10T12:19:00Z,00000200,01000000,0001.22,0000.55,0000.51,0000.05,0000.04,0000.54,0000.88,0000.54,0000.61,17.3,24.3,,00.0,0642.3,30.9
2021-03-10T12:20:00Z,00000200,01000000,0001.21,0000.89,0000.50,-000.15,0000.21,0000.53,0000.15,0000.50,0000.19,17.3,24.3,,00.0,0642.2,30.9
2021-03-10T12:21:00Z,00000200,01000000,0001.63,0000.66,0000.63,-000.07,0000.22,0000.10,0000.36,0000.20,-000.00,17.2,24.3,,00.0,0642.2,30.9
2021-03-10T12:22:00Z,00000200,01000000,0001.39,0001.01,0000.47,0000.09,0000.21,0000.25,0000.46,0000.23,0000.76,17.1,24.2,,00.0,0642.2,30.8
2021-03-10T12:23:00Z,00000200,01000000,0001.56,0000.70,0000.55,-000.25,0000.22,0000.15,0000.20,0000.31,0000.07,17.1,24.2,,00.0,0642.2,30.8
2021-03-10T12:24:00Z,00000200,01000000,0001.32,0000.74,0000.35,0000.23,0000.31,0000.09,0000.03,-000.07,0000.12,17.0,24.2,,00.0,0642.2,30.8
2021-03-10T12:25:00Z,00000200,01000000,0001.13,0000.94,0000.20,0000.06,0000.10,0000.26,0000.57,0000.36,0000.06,17.0,24.1,,00.0,0642.2,30.8
2021-03-10T12:26:00Z,00000200,01000000,0001.36,0000.80,0000.23,0000.00,0000.35,0000.12,0000.49,0000.86,0000.25,17.0,24.1,,00.0,0642.1,30.8
2021-03-10T12:27:00Z,00000200,01000000,0001.30,0000.91,0000.28,0000.12,0000.19,-000.02,0000.05,-000.21,0000.05,16.9,24.1,,00.0,0642.1,30.8
2021-03-10T12:28:00Z,00000200,01000000,0000.82,0001.03,0000.55,0000.23,0000.39,0000.19,0000.14,0000.08,0000.49,16.9,24.1,,00.0,0642.0,30.8
2021-03-10T12:29:00Z,00000200,01000000,0001.68,0000.86,0000.14,-000.08,0000.17,0000.37,0001.01,0000.95,0000.30,16.9,24.0,,00.0,0642.0,30.8
2021-03-10T12:30:00Z,00000200,01000000,0001.43,0000.89,0000.43,0000.37,0000.33,0000.18,0000.45,0000.93,0000.57,16.9,24.0,,00.0,0642.0,30.8
2021-03-10T12:31:00Z,00000200,01000000,0000.88,0001.03,0000.70,-000.11,0000.30,0000.26,0000.80,0000.23,0000.58,17.0,24.1,,00.0,0642.0,30.9
2021-03-10T12:32:00Z,00000200,01000000,0001.31,0001.08,0000.41,0000.06,0000.47,0000.32,0000.96,0000.74,0000.47,17.0,24.1,,00.0,0642.0,30.9
2021-03-10T12:33:00Z,00000200,01000000,0001.19,0000.83,0000.63,0000.23,0000.31,0000.25,0000.13,0000.47,0000.55,17.1,24.1,,00.0,0641.9,30.9
2021-03-10T12:34:00Z,00000200,01000000,0001.37,0000.74,0000.66,0000.17,0000.41,0000.13,0000.68,0000.74,0000.33,17.2,24.1,,00.0,0641.9,31.0
2021-03-10T12:35:00Z,00000200,01000000,0001.06,0000.50,0000.35,-000.19,0000.31,-000.03,0001.03,0000.64,0000.39,17.3,24.2,,00.0,0641.9,31.0
2021-03-10T12:36:00Z,00000200,01000000,0001.52,0001.09,0000.43,-000.38,0000.12,-000.09,0000.61,0000.65,0000.69,17.3,24.2,,00.0,0642.0,31.0
2021-03-10T12:37:00Z,00000200,01000000,0001.60,0001.05,0000.46,-000.14,0000.34,0000.23,0000.44,0000.55,0000.30,17.3,24.2,,00.0,0642.0,31.0
2021-03-10T12:38:00Z,00000200,01000000,0001.81,0001.23,0000.32,-000.19,0000.40,0000.19,0000.82,0000.36,0000.47,17.4,24.2,,00.0,0641.9,30.9
2021-03-10T12:39:00Z,00000200,01000000,0001.62,0001.21,0000.80,0000.15,0000.35,0000.20,0000.32,0000.63,0000.30,17.4,24.2,,00.0,0641.9,31.0
2021-03-10T12:40:00Z,00000200,01000000,0001.79,0001.05,0000.62,-000.07,0000.10,0000.16,0000.69,0000.20,0000.13,17.3,24.2,,00.0,0641.9,30.9
2021-03-10T12:41:00Z,00000200,01000000,0001.62,0000.80,0000.83,0000.00,0000.45,0000.18,0000.65,0000.76,0000.55,17.3,24.2,,00.0,0641.9,30.9
2021-03-10T12:42:00Z,00000200,01000000,0002.33,0001.26,0000.70,0000.12,0000.39,0000.46,0000.42,0000.60,0000.58,17.3,24.2,,00.0,0641.9,30.9
2021-03-10T12:43:00Z,00000200,01000000,0001.60,0001.21,0000.70,0000.16,0000.41,0000.55,0000.87,0000.63,0000.18,17.3,24.2,,00.0,0641.9,31.0
2021-03-10T12:44:00Z,00000200,01000000,0002.17,0001.09,0000.77,-000.00,0000.44,0000.25,0000.80,0000.88,0001.18,17.3,24.2,,00.0,0641.9,31.0
2021-03-10T12:45:00Z,00000200,01000000,0001.94,0001.33,0000.69,0000.18,0000.25,-000.06,0000.66,0000.45,0000.18,17.3,24.2,,00.0,0641.9,31.0
2021-03-10T12:46:00Z,00000200,01000000,0002.19,0001.27,0000.57,0000.03,0000.26,0000.13,0000.59,0000.86,0000.46,17.4,24.2,,00.0,0641.9,31.0
2021-03-10T12:47:00Z,00000200,01000000,0002.19,0001.30,0000.71,0000.23,0000.40,0000.08,0001.29,0001.23,0000.72,17.4,24.3,,00.0,0641.9,31.0
2021-03-10T12:48:00Z,00000200,01000000,0002.44,0001.35,0000.60,0000.01,0000.23,0000.13,0000.52,0000.60,0000.27,17.5,24.3,,00.0,0641.9,31.0
2021-03-10T12:49:00Z,00000200,01000000,0000.94,0001.22,0000.60,0000.28,0000.33,0000.41,0000.55,0000.70,0000.71,17.6,24.4,,00.0,0641.9,31.0
2021-03-10T12:50:00Z,00000200,01000000,0001.74,0001.40,0000.75,0000.65,0000.42,0000.25,0001.03,0000.74,0000.30,17.6,24.4,,00.0,0641.9,31.0
2021-03-10T12:51:00Z,00000200,01000000,0001.63,0001.13,0000.57,0000.08,0000.35,0000.48,0000.16,0000.54,0000.65,17.7,24.4,,00.0,0641.9,31.0
2021-03-10T12:52:00Z,00000200,01000000,0001.74,0001.28,0000.80,0000.51,0000.33,0000.46,0000.87,0000.15,0000.21,17.7,24.5,,00.0,0642.0,31.0
2021-03-10T12:53:00Z,00000200,01000000,0001.81,0001.37,0000.51,0000.12,0000.26,0000.11,0000.68,0000.86,0000.50,17.7,24.5,,00.0,0642.0,31.0
2021-03-10T12:54:00Z,00000200,01000000,0002.16,0001.19,0000.64,0000.20,0000.35,0000.41,0000.58,0000.39,0000.11,17.7,24.5,,00.0,0642.0,31.0
2021-03-10T12:55:00Z,00000200,01000000,0001.68,0001.04,0000.46,-000.00,0000.12,0000.05,0000.77,0000.50,0000.81,17.6,24.5,,00.0,0642.0,31.0
2021-03-10T12:56:00Z,00000200,01000000,0001.93,0001.10,0001.03,-000.08,0000.23,0000.39,0000.88,0000.77,0000.53,17.6,24.4,,00.0,0642.0,31.0
2021-03-10T12:57:00Z,00000200,41000000,,,,,,,-000.16,-000.07,-000.35,17.7,24.4,,00.0,0642.0,31.0
2021-03-10T12:58:00Z,00000200,61000000,,,,,,,-000.17,-000.15,0000.27,17.3,24.6,,00.0,0641.0,30.9
2021-03-10T12:59:00Z,00000200,21000000,,,,,,,0000.46,0000.74,0000.19,17.3,24.7,,00.0,0641.0,30.9
